[[{"header":{"parameterUnit":"m.s-1","parameterCategory":1,"la1":30.2991,"la2":30.254,"lo1":-89.0895,"lo2":-89.0444,"dy":0.0017,"dx":0.0017,"nx":28,"ny":28,"refTime":"2023-08-01T03:00:00:Z","depth":0,"parameterNumber":2,"parameterNumberName":"U-component_of_WINDS"},"data":[0,0,0,0,0,0,0,0,0,0,0,0,0,0,0,0,0,0,0,0,0,0,0,0,0,0,0,0,0,0,0,0,0,0,0,0,0,0,0,0,0,0,0,0,0,0,0,0,0,0,0,0,0,0,0,0,0,0,3.5428,3.5428,0,3.5464,3.5464,3.5464,3.5359,3.5356,3.5353,3.535,3.5389,3.5393,3.5397,0,0,0,0,0,0,0,0,0,0,0,0,0,3.5268,3.5272,3.5427,3.5428,3.5428,3.5464,3.5464,3.5465,3.536,3.5356,3.5352,3.5348,3.5388,3.5393,3.5398,0,0,0,0,0,0,0,0,0,0,0,0,0,3.5325,3.5273,3.5427,3.538,3.5376,3.5463,3.5464,3.5465,3.5361,3.5356,3.5351,3.5347,3.5386,3.5392,3.5398,3.5533,0,0,3.5417,3.542,0,0,0,0,0,0,0,0,3.5321,3.533,3.5387,3.5384,3.538,3.5402,3.5422,3.5488,3.5362,3.5367,3.535,3.5344,3.5398,3.5403,3.542,3.5535,3.5537,3.5418,3.5421,3.5424,3.5426,0,0,0,0,0,0,0,3.5318,3.5328,3.5442,3.5388,3.5383,3.5358,3.536,3.5434,3.5409,3.5366,3.5359,3.5364,3.5395,3.5414,3.542,3.5537,3.5417,3.5423,3.5427,3.5429,3.5761,3.5766,0,0,0,0,0,0,3.532,3.5326,3.5441,3.5443,3.5338,3.5364,3.5367,3.54,3.5408,3.5405,3.5368,3.5359,3.5406,3.5413,3.5421,3.5576,3.5424,3.543,3.5433,3.5756,3.5762,3.5768,0,0,0,0,0,0,3.5317,3.5331,3.5439,3.5382,3.5394,3.5372,3.541,3.5403,3.5422,3.541,3.5405,3.5393,3.5403,3.5413,3.5505,3.5576,3.5432,3.5438,3.575,3.5758,3.5765,3.589,0,0,0,0,0,0,3.5313,3.5331,3.5382,3.5384,3.5397,3.5523,3.5414,3.5407,3.5433,3.5421,3.5431,3.5428,3.54,3.5497,3.5511,3.5582,3.5443,3.5743,3.5753,3.5763,3.588,3.5902,3.592,0,0,0,0,0,3.5307,3.5417,3.5385,3.5399,3.5461,3.5527,3.5535,3.5499,3.5439,3.549,3.5481,3.5428,3.5567,3.5507,3.5523,3.5597,3.5739,3.5751,3.5762,3.5871,3.5897,3.592,0,0,0,0,0,0,3.5425,3.5416,3.5381,3.5494,3.5512,3.5509,3.5572,3.5529,3.5564,3.5552,3.5507,3.551,3.561,3.5613,3.5546,3.5726,3.5642,3.5658,3.572,3.5745,3.5765,3.5761,3.5448,0,0,0,0,0,3.5463,3.5518,3.5508,3.5609,3.5619,3.5595,3.5622,3.5593,3.561,3.5617,3.5615,3.5634,3.5681,3.5714,3.5757,3.588,3.588,3.5939,3.5959,3.5976,3.5989,3.6051,3.6076,3.5806,3.5806,3.5806,0,0,3.5545,3.5547,3.5584,3.5632,3.5643,3.5699,3.5602,3.5667,3.5708,3.5627,3.5713,3.5713,3.5731,3.5838,3.5886,3.5844,3.6063,3.599,3.6004,3.6008,3.6066,3.6091,3.6114,3.5814,3.5812,3.5811,0,0,3.5721,3.5729,3.5812,3.5824,3.584,3.5822,3.5843,3.5846,3.5842,3.5928,3.5868,3.5917,3.6,3.6014,3.6033,3.6212,3.6164,3.6228,3.6332,3.6394,3.6415,3.6433,3.6495,3.6517,3.6241,3.6242,3.6242,0,3.5819,3.5902,3.5861,3.5929,3.5951,3.5879,3.5962,3.5976,3.6007,3.6023,3.5976,3.6077,3.6085,3.6193,3.6236,3.6255,3.6275,3.6225,3.6415,3.6433,3.645,3.6508,3.6531,3.6249,3.6248,3.6248,3.6247,0,3.6021,3.6079,3.6145,3.6173,3.6203,3.6279,3.6249,3.6284,3.6252,3.6239,3.6326,3.6333,3.6374,3.6398,3.6369,3.6502,3.6475,3.6423,3.6337,3.6484,3.6537,3.6559,3.626,3.6257,3.6255,3.6253,0,0,3.6272,3.6275,3.63,3.631,3.6322,3.6366,3.6438,3.6478,3.6507,3.6531,3.6589,3.666,3.661,3.6631,3.6603,3.6657,3.6795,3.6597,3.6596,3.6631,3.6939,3.6976,3.7003,3.6763,3.6768,3.6771,3.6936,0,3.6442,3.6564,3.6528,3.665,3.6702,3.6634,3.6696,3.671,3.67,3.6743,3.6732,3.6782,3.6714,3.6726,3.6777,3.6767,3.6856,3.6755,3.6815,3.6818,3.681,3.7031,3.7072,3.7227,3.6957,3.6961,3.6963,0,3.6658,3.6687,3.6814,3.6814,3.6834,3.6891,3.6922,3.6965,3.6979,3.6967,3.699,3.6949,3.7019,3.6935,3.703,3.6962,3.6985,3.6984,3.6989,3.6991,3.6898,3.7037,3.7276,3.7299,3.6996,3.6994,3.6991,0,3.6824,3.6895,3.6979,3.6991,3.6995,3.7035,3.7039,3.7048,3.7073,3.7102,3.7117,3.7154,3.7174,3.7203,3.7174,3.7116,3.7272,3.7186,3.7263,3.7264,3.7297,3.7295,3.7541,3.7317,3.7317,3.7316,3.7316,0,3.7017,3.7096,3.7053,3.7105,3.7191,3.715,3.7237,3.7233,3.7241,3.729,3.7235,3.7282,3.7241,3.7285,3.7263,3.7342,3.7353,3.7345,3.7337,3.7348,3.7349,3.7361,3.7348,3.7322,3.7321,3.732,3.7319,0,3.7216,3.7191,3.7277,3.7273,3.7274,3.7337,3.7333,3.7381,3.7366,3.7429,3.7441,3.7419,3.7467,3.7441,3.7492,3.7476,3.7579,3.7558,3.7574,3.7567,3.7644,3.7636,3.7904,3.7936,3.7694,3.7697,3.7699,0,3.734,3.7398,3.74,3.7428,3.7434,3.7481,3.7506,3.7467,3.7495,3.7514,3.7559,3.7602,3.7634,3.7714,3.7703,3.774,3.7718,3.781,3.7724,3.7732,3.7716,3.7712,3.7716,3.7827,3.7829,3.7832,3.7834,0,3.756,3.7544,3.7581,3.7614,3.7644,3.7668,3.7688,3.7714,3.7676,3.771,3.7757,3.7782,3.7832,3.7875,3.7907,3.7911,3.7866,3.7861,3.788,3.789,3.7895,3.7891,3.7618,3.7855,3.7852,3.7851,3.785,3.7849,3.7723,3.7771,3.7778,3.7821,3.7831,3.785,3.7893,3.7883,3.7922,3.7958,3.7934,3.799,3.8,3.8038,3.8047,3.809,3.8053,3.8082,3.8089,3.8096,3.8104,3.7891,3.8096,3.8095,3.8095,3.8094,3.8094,0,3.7938,3.7939,3.7979,3.8006,3.8039,3.7993,3.8012,3.8043,3.8092,3.8105,3.8137,3.8191,3.8232,3.8223,3.826,3.8296,3.8276,3.8306,3.8302,3.8303,3.8137,3.8115,3.8322,3.8322,3.8321,3.8321,3.8321,3.8321,3.8053,3.8131,3.8116,3.8198,3.8198,3.8251,3.8265,3.8282,3.8292,3.8354,3.8387,3.838,3.8384,3.842,3.8455,3.8452,3.8467,3.8504,3.8493,3.8338,3.8315,3.8293,3.8272,3.8509,3.8509,3.8655,3.8656,3.8657]},{"header":{"parameterUnit":"m.s-1","parameterCategory":1,"la1":30.2991,"la2":30.254,"lo1":-89.0895,"lo2":-89.0444,"dy":0.0017,"dx":0.0017,"nx":28,"ny":28,"refTime":"2023-08-01T03:00:00:Z","depth":0,"parameterNumber":3,"parameterNumberName":"V-component_of_WINDS"},"data":[0,0,0,0,0,0,0,0,0,0,0,0,0,0,0,0,0,0,0,0,0,0,0,0,0,0,0,0,0,0,0,0,0,0,0,0,0,0,0,0,0,0,0,0,0,0,0,0,0,0,0,0,0,0,0,0,0,0,1.4714,1.4715,0,1.4742,1.4743,1.4743,1.472,1.4719,1.4718,1.4717,1.4744,1.4746,1.4748,0,0,0,0,0,0,0,0,0,0,0,0,0,1.464,1.4641,1.4714,1.4715,1.4715,1.4742,1.4743,1.4743,1.472,1.4719,1.4718,1.4717,1.4744,1.4746,1.4748,0,0,0,0,0,0,0,0,0,0,0,0,0,1.467,1.4642,1.4714,1.4707,1.4707,1.4742,1.4743,1.4743,1.472,1.4719,1.4717,1.4716,1.4743,1.4746,1.4748,1.4792,0,0,1.4756,1.4757,0,0,0,0,0,0,0,0,1.4668,1.4673,1.4708,1.4708,1.4707,1.4726,1.4726,1.476,1.4721,1.4715,1.4717,1.4715,1.4739,1.4742,1.475,1.4793,1.4795,1.4756,1.4757,1.4758,1.4759,0,0,0,0,0,0,0,1.4666,1.4672,1.4725,1.4708,1.4708,1.4702,1.4704,1.4732,1.4735,1.4715,1.4714,1.4718,1.4739,1.4748,1.4751,1.4795,1.4756,1.4758,1.4759,1.476,1.4874,1.4875,0,0,0,0,0,0,1.4665,1.467,1.4725,1.4726,1.4684,1.4704,1.4707,1.4722,1.4735,1.4735,1.4719,1.4716,1.4745,1.4748,1.4752,1.4803,1.4758,1.4761,1.4762,1.4872,1.4874,1.4876,0,0,0,0,0,0,1.4664,1.467,1.4723,1.4698,1.4704,1.4707,1.4723,1.4723,1.4732,1.4737,1.4737,1.4728,1.4744,1.4748,1.4782,1.4804,1.4762,1.4764,1.487,1.4873,1.4875,1.4907,0,0,0,0,0,0,1.4662,1.467,1.4687,1.4698,1.4705,1.4754,1.4725,1.4724,1.4736,1.4734,1.4746,1.4746,1.4743,1.4778,1.4784,1.4806,1.4766,1.4868,1.4871,1.4874,1.4904,1.491,1.4915,0,0,0,0,0,1.4659,1.4695,1.4688,1.4695,1.4727,1.4755,1.4759,1.4755,1.4738,1.4755,1.4758,1.4746,1.4801,1.4782,1.4789,1.4812,1.4867,1.4871,1.4874,1.4901,1.4909,1.4915,0,0,0,0,0,0,1.4686,1.4696,1.4689,1.473,1.4742,1.4751,1.4772,1.4763,1.478,1.4777,1.477,1.4773,1.4808,1.4813,1.4793,1.4854,1.4831,1.4836,1.485,1.4857,1.4862,1.486,1.4768,0,0,0,0,0,1.4697,1.4719,1.4727,1.4762,1.4769,1.477,1.4782,1.4777,1.4789,1.4794,1.48,1.4812,1.4831,1.4844,1.4863,1.4905,1.4906,1.4924,1.4929,1.4934,1.4938,1.4959,1.4967,1.4887,1.4887,1.4887,0,0,1.472,1.4728,1.4742,1.4768,1.4777,1.4799,1.4774,1.4799,1.4815,1.4798,1.483,1.4834,1.4847,1.4884,1.4901,1.489,1.4961,1.4938,1.4942,1.4944,1.4964,1.4971,1.4978,1.489,1.4889,1.4889,0,0,1.4772,1.4781,1.481,1.482,1.4833,1.4834,1.4841,1.4852,1.4854,1.4886,1.4873,1.4892,1.4926,1.4936,1.4945,1.5,1.4988,1.5006,1.5035,1.5056,1.5062,1.5068,1.5086,1.5093,1.501,1.501,1.501,0,1.4798,1.4832,1.4827,1.4853,1.4864,1.4849,1.4879,1.4888,1.4907,1.4914,1.4901,1.4944,1.4951,1.499,1.5003,1.5012,1.5019,1.5004,1.5062,1.5067,1.5072,1.509,1.5097,1.5012,1.5012,1.5012,1.5012,0,1.4862,1.4886,1.4908,1.4927,1.4941,1.4968,1.4967,1.4981,1.4976,1.4977,1.5009,1.5018,1.5037,1.5046,1.5041,1.5084,1.5076,1.5063,1.5039,1.5082,1.5098,1.5105,1.5015,1.5014,1.5014,1.5013,0,0,1.4932,1.4948,1.4956,1.4964,1.4977,1.4995,1.5022,1.5041,1.5053,1.5066,1.5088,1.5117,1.5104,1.5114,1.511,1.5129,1.517,1.5112,1.5113,1.5122,1.5217,1.5226,1.5234,1.5163,1.5164,1.5165,1.5215,0,1.4984,1.5031,1.5027,1.5071,1.5092,1.5078,1.5101,1.5111,1.5113,1.5131,1.5133,1.5153,1.5135,1.5141,1.5159,1.5161,1.5189,1.5158,1.5182,1.5183,1.5178,1.5243,1.5253,1.53,1.5222,1.5223,1.5224,0,1.5051,1.5067,1.5113,1.5122,1.5131,1.5152,1.5168,1.5186,1.5197,1.5197,1.5208,1.5201,1.5226,1.5203,1.5238,1.5216,1.5226,1.5229,1.523,1.5232,1.5205,1.5245,1.5315,1.5322,1.5234,1.5233,1.5232,0,1.5096,1.5129,1.516,1.5167,1.518,1.5194,1.52,1.521,1.5221,1.5236,1.5243,1.526,1.527,1.5283,1.528,1.5263,1.5315,1.5291,1.5315,1.5315,1.5326,1.5325,1.5398,1.5334,1.5334,1.5333,1.5333,0,1.5154,1.5182,1.518,1.52,1.523,1.5226,1.5256,1.526,1.5269,1.5288,1.5277,1.5295,1.529,1.5308,1.5305,1.5334,1.5338,1.5338,1.5337,1.5339,1.5339,1.5345,1.5341,1.5335,1.5335,1.5335,1.5334,0,1.5209,1.521,1.5242,1.5251,1.5254,1.5276,1.5284,1.5301,1.5302,1.5326,1.5332,1.5333,1.5353,1.5351,1.5374,1.5372,1.5407,1.5403,1.5404,1.5402,1.5426,1.5423,1.5504,1.5513,1.5444,1.5445,1.5445,0,1.5246,1.5267,1.5278,1.529,1.5297,1.5317,1.5328,1.5324,1.5337,1.5351,1.5366,1.5385,1.54,1.5433,1.5436,1.5452,1.5448,1.5475,1.545,1.5451,1.5447,1.5445,1.5447,1.5479,1.548,1.5481,1.5481,0,1.531,1.5309,1.5326,1.5344,1.5358,1.5371,1.5383,1.5394,1.539,1.5405,1.5425,1.5437,1.546,1.5479,1.5495,1.55,1.549,1.5489,1.5495,1.5497,1.5496,1.5496,1.5416,1.5487,1.5486,1.5486,1.5486,1.5486,1.5357,1.5375,1.5385,1.5404,1.5413,1.5424,1.5441,1.5444,1.5461,1.548,1.5476,1.5499,1.5508,1.5529,1.5536,1.5553,1.5543,1.5552,1.5554,1.5556,1.5559,1.5494,1.5556,1.5556,1.5555,1.5555,1.5555,0,1.5419,1.5425,1.5443,1.546,1.5475,1.5465,1.5478,1.5491,1.5511,1.5521,1.5536,1.5559,1.5577,1.5581,1.5598,1.5611,1.5607,1.5616,1.5614,1.5615,1.5567,1.5559,1.5619,1.5619,1.5619,1.5619,1.5619,1.5619,1.5454,1.5483,1.5483,1.5516,1.5522,1.5544,1.5552,1.5562,1.557,1.5597,1.5612,1.5614,1.5621,1.5639,1.5655,1.5655,1.5661,1.5672,1.5671,1.5625,1.5619,1.5613,1.5606,1.5673,1.5674,1.5717,1.5718,1.5718]}]]